TimeAKDT,TemperatureF,Dew PointF,Humidity,Sea Level PressureIn,VisibilityMPH,Wind Direction,Wind SpeedMPH,Gust SpeedMPH,PrecipitationIn,Events,Conditions,WindDirDegrees,DateUTC
12:55 AM,53.4,48.4,83,29.91,10.0,Variable,4.6,-,N/A,,Clear,0,2013-08-05 08:55:00
1:55 AM,51.8,47.8,86,29.92,10.0,Variable,4.6,-,N/A,,Partly Cloudy,0,2013-08-05 09:55:00
2:55 AM,47.5,45.3,92,29.93,10.0,Variable,5.8,-,N/A,,Partly Cloudy,0,2013-08-05 10:55:00
3:55 AM,46.8,44.2,91,29.94,10.0,Variable,3.5,-,N/A,,Mostly Cloudy,0,2013-08-05 11:55:00
4:55 AM,46.0,43.9,92,29.94,10.0,Variable,4.6,-,N/A,,Scattered Clouds,0,2013-08-05 12:55:00
5:55 AM,46.0,43.7,92,29.94,10.0,Calm,Calm,-,N/A,,Mostly Cloudy,0,2013-08-05 13:55:00
6:55 AM,51.3,47.1,86,29.94,10.0,Variable,3.5,-,N/A,,Overcast,0,2013-08-05 14:55:00
7:55 AM,53.4,48.2,82,29.94,10.0,Calm,Calm,-,N/A,,Scattered Clouds,0,2013-08-05 15:55:00
8:55 AM,58.1,49.6,73,29.93,10.0,Calm,Calm,-,N/A,,Scattered Clouds,0,2013-08-05 16:55:00
9:55 AM,62.8,51.1,66,29.93,10.0,Calm,Calm,-,N/A,,Clear,0,2013-08-05 17:55:00
10:55 AM,65.8,50.5,58,29.92,10.0,Calm,Calm,-,N/A,,Clear,0,2013-08-05 18:55:00
11:55 AM,69.1,49.3,49,29.91,10.0,NW,5.8,-,N/A,,Clear,320,2013-08-05 19:55:00
1:55 PM,72.0,45.0,38,29.88,10.0,Variable,4.6,-,N/A,,Scattered Clouds,0,2013-08-05 21:55:00
2:55 PM,73.4,43.5,34,29.88,10.0,Calm,Calm,-,N/A,,Partly Cloudy,0,2013-08-05 22:55:00
3:55 PM,72.7,44.6,37,29.87,10.0,NE,6.9,-,N/A,,Scattered Clouds,40,2013-08-05 23:55:00
4:55 PM,73.2,44.6,36,29.86,10.0,Variable,3.5,-,N/A,,Partly Cloudy,0,2013-08-06 00:55:00
5:55 PM,74.5,43.7,33,29.87,10.0,Variable,6.9,-,N/A,,Mostly Cloudy,0,2013-08-06 01:55:00
6:55 PM,73.9,40.6,30,29.87,10.0,Calm,Calm,-,N/A,,Clear,0,2013-08-06 02:55:00
7:55 PM,74.5,43.3,33,29.86,10.0,Variable,3.5,-,N/A,,Clear,0,2013-08-06 03:55:00
8:55 PM,71.6,44.4,38,29.88,10.0,Calm,Calm,-,N/A,,Clear,0,2013-08-06 04:55:00
9:55 PM,66.2,46.2,49,29.88,10.0,Calm,Calm,-,N/A,,Clear,0,2013-08-06 05:55:00
10:55 PM,63.9,42.8,46,29.89,10.0,Variable,3.5,-,N/A,,Clear,0,2013-08-06 06:55:00
11:55 PM,56.7,45.3,66,29.91,10.0,Variable,3.5,-,N/A,,Clear,0,2013-08-06 07:55:00